Regional Weather Roundup
Issued by NWS Mobile, AL

Home | Current Version | Previous Version | Text Only | Print | Product List | Glossary On
Versions: 1 2 3 4 5 6 7 8 9 10 11 12 13 14 15 16 17 18 19 20 21 22 23 24 25 26 27 28 29 30 31 32 33 34 35 36 37 38 39 40 41 42 43 44 45 46 47 48 49 50
000
ASUS44 KMOB 030016
RWRMOB
REGIONAL WEATHER ROUNDUP
NATIONAL WEATHER SERVICE MOBILE AL
700 PM CDT WED SEP 02 2015

ALZ061>064-030100-
COASTAL ALABAMA


CITY           SKY/WX    TMP DP  RH WIND       PRES   REMARKS
MOBILE REG APT MOCLDY    82  74  76 SW5       30.00F
6HR MIN TEMP:  82; 6HR MAX TEMP:  91;

BROOKLEY FIELD MOCLDY    83  74  74 W5        30.00F
6HR MIN TEMP:  83; 6HR MAX TEMP:  92;

GULF SHORES    CLOUDY    83  76  80 W7        29.98F
6HR MIN TEMP:  82; 6HR MAX TEMP:  91;


$$

ALZ051>060-030100-
INTERIOR SOUTHWEST AND SOUTH CENTRAL ALABAMA


CITY           SKY/WX    TMP DP  RH WIND       PRES   REMARKS
ANDALUSIA/OPP  CLOUDY    89  72  56 CALM      29.97S HX  96
6HR MIN TEMP:  87; 6HR MAX TEMP:  99;

EVERGREEN      CLOUDY    86  69  56 MISG      29.98S
6HR MIN TEMP:  84; 6HR MAX TEMP:  97;

FLORALA        PTCLDY    85  69  58 SW9       29.99S
6HR MIN TEMP:  84; 6HR MAX TEMP:  95;

GREENVILLE     FAIR      84  74  71 CALM      29.98S
6HR MIN TEMP:  84; 6HR MAX TEMP:  95;


$$

FLZ001>006-030100-
WESTERN FLORIDA PANHANDLE


CITY           SKY/WX    TMP DP  RH WIND       PRES   REMARKS
CRESTVIEW      MOCLDY    87  69  54 W6        29.99R
6HR MIN TEMP:  87; 6HR MAX TEMP:  96;

DESTIN         MOCLDY    87  72  60 W6        29.97S
6HR MIN TEMP:  87; 6HR MAX TEMP:  92;

DUKE FIELD     NOT AVBL
MARY ESTHER    NOT AVBL
MILTON         MOCLDY    87  70  56 VRB5      29.98S
6HR MIN TEMP:  87; 6HR MAX TEMP:  99;

PENSACOLA      MOCLDY    85  71  63 W8        29.98S
6HR MIN TEMP:  85; 6HR MAX TEMP:  93;

NAS PENSACOLA  NOT AVBL
VALPARAISO     NOT AVBL

$$

...MARINE OBSERVATIONS...

STATION/POSITION TIME  SKY/WX   TEMP    WIND        PRES    VSBY
                                AIR SEA DIR/SP/G
                 (UTC)          (F)     (DEG/KT/KT) (MB)    (MI)
PASCAGOULA       2300            84     240/  6/  8 1015.6F
GRAND BAY        2245            84     230/  7     1017.0
PETIT BOIS ISL   2300            83     230/  7/  9 1016.2F
E DAUPHIN ISLAND 0000            84     270/  3/  4 1015.3F
MIDDLE BAY LIGHT 2300            84     240/ 13     1015.6S
USCG MOBILE BAY  2300            85 85  230/  5/  8 1014.7F
STATE DOCKS      2300            87 85              1015.3F
MEAHER PARK      0000            85     240/ 10     1014.6S
FORT MORGAN      2300            84     260/  9/ 11 1015.1F
12 S ORANGE BCH  2350            84 86  240/ 10/ 10 1014.8F
WVE H/P(F/S)=  1/ 5

PENSACOLA BAY    2300            86 86  230/  9/ 13 1015.5F
64 S DAUPHIN ISL 2350            84 87  160/  6/  8 1015.7F
WVE H/P(F/S)=  1/ 6

115 SE PENSACOLA 2350            85 88  320/  2/  4 1015.8F
WVE H/P(F/S)=  1/ 4

MID GULF/42001   0000            83 85  150/  2/  4 1015.4R
EAST GULF/42003  2350            85 87   60/  4/  6 1015.8R
WVE H/P(F/S)=  1/ 6


$$

...NEARBY LOCATIONS

CITY           SKY/WX    TMP DP  RH WIND       PRES   REMARKS
GULFPORT       CLOUDY    84  73  69 CALM      29.98F
6HR MIN TEMP:  84; 6HR MAX TEMP:  87;

BILOXI         NOT AVBL
PASCAGOULA     CLOUDY    82  75  79 CALM      29.99F
6HR MIN TEMP:  82; 6HR MAX TEMP:  88;

HATTIESBURG    MOCLDY    85  68  56 SW5       30.00F
6HR MIN TEMP:  83; 6HR MAX TEMP:  95; 6HR PCP: TRACE;

LAUREL         MOCLDY    84  55  37 NW5       30.03R
6HR MIN TEMP:  84; 6HR MAX TEMP:  91;

MERIDIAN       CLOUDY    79  75  87 CALM      30.00S
6HR MIN TEMP:  74; 6HR MAX TEMP:  91; 6HR PCP:  0.70;

MERIDIAN NAS   CLOUDY    78  75  90 CALM      30.00S
6HR MIN TEMP:  75; 6HR MAX TEMP:  93; 6HR PCP:  0.03;

MONTGOMERY     MOCLDY    87  71  58 W6        29.97F
6HR MIN TEMP:  87; 6HR MAX TEMP:  97;

MAXWELL AFB    NOT AVBL
TROY           PTCLDY    84  74  71 CALM      29.99S
6HR MIN TEMP:  83; 6HR MAX TEMP:  96;

FORT RUCKER    PTCLDY    84  71  65 CALM      29.96S
6HR MIN TEMP:  84; 6HR MAX TEMP:  97;

DALEVILLE      NOT AVBL
DOTHAN         PTCLDY    86  74  67 NE3       30.01S
6HR MIN TEMP:  86; 6HR MAX TEMP:  94;


$$

...OTHER SURROUNDING LOCATIONS...

CITY           SKY/WX    TMP DP  RH WIND       PRES   REMARKS
BIRMINGHAM     CLOUDY    82  74  76 CALM      30.02F
6HR MIN TEMP:  82; 6HR MAX TEMP:  88; 6HR PCP: TRACE;

TUSCALOOSA     CLOUDY    82  75  79 CALM      29.99S
6HR MIN TEMP:  82; 6HR MAX TEMP:  91;

COLUMBUS GA    PTCLDY    88  67  49 N3        29.98S
6HR MIN TEMP:  87; 6HR MAX TEMP:  92;

PANAMA CITY    NOT AVBL
TALLAHASSEE    MOCLDY    84  76  76 S5        29.98R
6HR MIN TEMP:  84; 6HR MAX TEMP:  95;

BATON ROUGE    CLOUDY    81  71  71 SE5       29.99F
6HR MIN TEMP:  81; 6HR MAX TEMP:  88; 6HR PCP: TRACE;

NEW ORLEANS    CLOUDY    80  70  71 SE3       29.99S
6HR MIN TEMP:  78; 6HR MAX TEMP:  83; 6HR PCP:  0.03;

SLIDELL        CLOUDY    82  75  79 SW3       29.99S
6HR MIN TEMP:  82; 6HR MAX TEMP:  87; 6HR PCP: TRACE;

JACKSON        CLOUDY    85  71  63 SE8       29.99F
6HR MIN TEMP:  85; 6HR MAX TEMP:  90;

MCCOMB         MOCLDY    83  71  67 CALM      30.01S
6HR MIN TEMP:  83; 6HR MAX TEMP:  88;


$$

...SURROUNDING MARINE OBSERVATIONS...

STATION/POSITION TIME  SKY/WX   TEMP    WIND        PRES    VSBY
                                AIR SEA DIR/SP/G
                 (UTC)          (F)     (DEG/KT/KT) (MB)    (MI)
WAVELAND         2300            84 86  170/  5/  6 1015.9F
PASCAGOULA RGN A 2300            84     220/  7/  9 1015.3F
PASCAGOULA PORT  2300               86                N/A
GRAND ISLE       2300            79 86  130/  3/  6 1015.6F
SOUTHWEST PASS   0000                                 N/A
PILOT STATION E  2300            80 86   40/  4/  5 1015.9F
SHELL BEACH      2300            79 86  230/  5/  6 1015.1F
PANAMA CITY      2300            86 88  260/ 11/ 13 1014.5F
APALACHICOLA     2300            86 87  270/  9/ 11 1014.8F
TYNDALL TOWER C  0000            84     250/  9/ 10 1015.4R
S APLCHCLA/42036 2350            85 87  300/  2/  4 1015.7R
WVE H/P(F/S)=  1/ 3


$$




USA.gov is the U.S. government's official web portal to all federal, state and local government web resources and services.